Vorticity
9 15 10 11 4 3 8 16 10 7 5 6 7 7 7 7 8 7 6 7 6 6
14 14 10 8 5 5 -9 -1 -3 11 11 8 7 6 7 6 8 8 8 7 6 6
10 14 12 5 3 1 10 11 10 -1 -1 11 11 10 9 9 10 7 9 6 7 7
3 9 13 14 6 6 3 5 -4 4 13 12 7 8 9 8 8 9 7 9 7 6
28 -5 -0 5 10 7 4 6 12 5 27 -9 7 10 12 8 9 10 10 9 7 7
12 17 -6 18 17 20 7 5 7 4 -1 -5 11 11 11 9 10 9 9 7 6 6
8 11 11 10 7 -8 31 -1 6 4 22 19 11 10 9 9 8 8 10 8 2 7
22 9 8 17 9 7 -3 31 14 14 14 7 10 13 8 6 -1 7 8 4 14 4
9 19 7 5 11 3 27 9 0 -2 9 18 -16 5 6 5 19 -6 14 2 15 2
16 13 15 10 11 16 18 29 22 -24 73 4 9 24 35 8 11 15 18 1 9 6
19 16 14 18 14 13 19 9 -35 51 9 29 11 14 15 12 12 16 -2 5 7 6
16 23 29 24 24 11 23 36 10 45 14 8 18 7 10 13 6 -2 10 6 6 5
16 9 13 12 23 6 15 28 24 11 8 5 10 13 10 4 4 8 3 5 2 8
22 14 12 10 6 30 32 23 14 11 16 10 5 9 8 5 -0 6 2 3 8 10
Height
3086 3090 3095 3097 3100 3105 3107 3110 3111 3113 3116 3119 3120 3123 3125 3127 3128 3130 3131 3132 3133 3135
3077 3081 3086 3089 3092 3096 3099 3103 3105 3107 3109 3111 3113 3116 3117 3119 3121 3124 3125 3126 3127 3129
3069 3073 3078 3081 3084 3087 3091 3093 3097 3098 3100 3103 3105 3107 3110 3111 3113 3116 3119 3120 3121 3121
3057 3063 3068 3072 3075 3078 3083 3085 3087 3092 3092 3094 3098 3099 3102 3103 3105 3108 3109 3113 3114 3115
3050 3053 3058 3063 3066 3070 3074 3076 3079 3082 3084 3085 3088 3091 3096 3096 3097 3100 3103 3106 3108 3108
3040 3044 3048 3051 3047 3058 3064 3067 3069 3071 3075 3076 3080 3084 3088 3089 3091 3092 3096 3098 3100 3101
3033 3036 3039 3042 3045 3048 3052 3055 3059 3058 3063 3064 3068 3071 3078 3081 3083 3085 3089 3090 3090 3091
3024 3027 3030 3033 3036 3039 3039 3038 3044 3041 3046 3053 3056 3063 3068 3070 3072 3076 3081 3082 3084 3085
3015 3018 3021 3024 3027 3030 3035 3038 3036 3042 3042 3043 3048 3050 3053 3059 3059 3069 3076 3074 3077 3080
3006 3008 3011 3015 3018 3021 3027 3029 3033 3035 3039 3040 3048 3049 3053 3056 3059 3064 3067 3070 3070 3072
2997 3000 3002 3005 3009 3015 3020 3023 3024 3029 3032 3036 3043 3047 3050 3052 3057 3061 3062 3063 3065 3067
2990 2991 2993 2996 3001 3007 3011 3017 3017 3022 3026 3030 3034 3041 3045 3049 3053 3053 3055 3059 3061 3060
2984 2986 2988 2990 2994 2998 3002 3006 3011 3015 3018 3027 3030 3037 3041 3044 3047 3050 3051 3052 3053 3054
2977 2981 2982 2985 2989 2992 2995 3000 3008 3012 3016 3022 3024 3030 3034 3039 3043 3044 3044 3045 3048 3046